TimeEDT,TemperatureF,Dew PointF,Humidity,Sea Level PressureIn,VisibilityMPH,Wind Direction,Wind SpeedMPH,Gust SpeedMPH,PrecipitationIn,Events,Conditions,WindDirDegrees,DateUTC
12:15 AM,46.9,27.3,46,30.21,10.0,SW,6.9,-,N/A,,Clear,220,2013-03-11 04:15:00
12:35 AM,50.4,24.1,36,30.20,10.0,South,6.9,-,N/A,,Clear,170,2013-03-11 04:35:00
12:55 AM,51.1,23.2,34,30.19,10.0,South,6.9,-,N/A,,Clear,170,2013-03-11 04:55:00
1:15 AM,51.1,23.0,33,30.19,10.0,SSE,4.6,-,N/A,,Clear,160,2013-03-11 05:15:00
1:35 AM,50.5,22.5,33,30.18,10.0,South,3.5,-,N/A,,Clear,170,2013-03-11 05:35:00
1:55 AM,49.1,23.5,37,30.18,10.0,SSW,4.6,-,N/A,,Clear,210,2013-03-11 05:55:00
2:35 AM,45.0,25.9,47,30.17,10.0,SW,3.5,-,N/A,,Clear,230,2013-03-11 06:35:00
2:55 AM,44.1,26.4,50,30.17,10.0,WSW,4.6,-,N/A,,Clear,240,2013-03-11 06:55:00
3:15 AM,45.7,25.5,45,30.16,10.0,SSW,6.9,-,N/A,,Clear,200,2013-03-11 07:15:00
3:55 AM,43.7,25.9,50,30.14,10.0,SW,3.5,-,N/A,,Clear,230,2013-03-11 07:55:00
4:15 AM,42.4,26.2,53,30.13,10.0,SW,3.5,-,N/A,,Clear,220,2013-03-11 08:15:00
4:35 AM,42.8,26.1,52,30.13,10.0,Calm,Calm,-,N/A,,Clear,0,2013-03-11 08:35:00
4:55 AM,42.3,26.4,54,30.13,10.0,Calm,Calm,-,N/A,,Clear,0,2013-03-11 08:55:00
5:15 AM,42.4,26.6,54,30.12,10.0,SW,3.5,-,N/A,,Clear,220,2013-03-11 09:15:00
5:35 AM,43.2,27.1,53,30.12,10.0,SSW,5.8,-,N/A,,Clear,210,2013-03-11 09:35:00
6:15 AM,43.2,27.1,53,30.11,10.0,WSW,3.5,-,N/A,,Clear,240,2013-03-11 10:15:00
6:35 AM,41.0,28.0,60,30.11,10.0,SW,4.6,-,N/A,,Clear,220,2013-03-11 10:35:00
6:55 AM,40.1,28.2,63,30.12,10.0,WSW,3.5,-,N/A,,Clear,240,2013-03-11 10:55:00
7:15 AM,42.4,27.0,54,30.11,10.0,SSW,5.8,-,N/A,,Clear,200,2013-03-11 11:15:00
7:35 AM,42.1,26.8,55,30.11,10.0,WSW,3.5,-,N/A,,Clear,240,2013-03-11 11:35:00
7:55 AM,43.3,26.8,52,30.12,10.0,SSW,3.5,-,N/A,,Clear,210,2013-03-11 11:55:00
8:15 AM,42.3,27.3,56,30.12,10.0,SSW,3.5,-,N/A,,Clear,210,2013-03-11 12:15:00
8:35 AM,43.9,26.2,50,30.12,10.0,Calm,Calm,-,N/A,,Clear,0,2013-03-11 12:35:00
8:55 AM,44.2,27.3,51,30.12,10.0,West,4.6,-,N/A,,Clear,280,2013-03-11 12:55:00
9:15 AM,44.6,29.5,55,30.11,10.0,Calm,Calm,-,N/A,,Clear,0,2013-03-11 13:15:00
9:35 AM,46.4,29.3,51,30.11,10.0,Calm,Calm,-,N/A,,Clear,0,2013-03-11 13:35:00
9:55 AM,48.7,29.1,47,30.11,10.0,WSW,4.6,-,N/A,,Clear,250,2013-03-11 13:55:00
10:15 AM,50.0,28.4,43,30.12,10.0,SSW,5.8,-,N/A,,Clear,200,2013-03-11 14:15:00
10:35 AM,51.1,24.4,35,30.12,10.0,South,6.9,-,N/A,,Clear,190,2013-03-11 14:35:00
10:55 AM,51.3,24.1,35,30.13,10.0,SSW,5.8,-,N/A,,Clear,210,2013-03-11 14:55:00
11:15 AM,51.8,23.7,33,30.11,10.0,SSE,5.8,-,N/A,,Clear,160,2013-03-11 15:15:00
11:35 AM,52.3,23.0,32,30.11,10.0,South,6.9,-,N/A,,Clear,190,2013-03-11 15:35:00
11:55 AM,53.2,21.0,28,30.10,10.0,SSE,4.6,-,N/A,,Clear,160,2013-03-11 15:55:00
12:15 PM,54.0,19.9,26,30.09,10.0,South,10.4,-,N/A,,Clear,170,2013-03-11 16:15:00
12:35 PM,54.5,21.4,28,30.08,10.0,SSE,6.9,-,N/A,,Clear,160,2013-03-11 16:35:00
12:55 PM,55.0,24.8,31,30.08,10.0,South,6.9,-,N/A,,Clear,180,2013-03-11 16:55:00
1:15 PM,55.4,31.3,40,30.07,10.0,South,11.5,17.3,N/A,,Clear,180,2013-03-11 17:15:00
1:35 PM,56.1,34.3,44,30.06,10.0,SSE,10.4,16.1,N/A,,Clear,160,2013-03-11 17:35:00
1:55 PM,57.2,37.9,49,30.05,10.0,SSE,11.5,-,N/A,,Clear,160,2013-03-11 17:55:00
2:15 PM,57.2,39.7,52,30.03,10.0,SSE,8.1,-,N/A,,Scattered Clouds,150,2013-03-11 18:15:00
2:35 PM,56.3,41.0,57,30.03,10.0,SSE,12.7,19.6,N/A,,Clear,160,2013-03-11 18:35:00
2:55 PM,55.9,41.4,58,30.02,10.0,SSE,11.5,17.3,N/A,,Clear,150,2013-03-11 18:55:00
3:15 PM,55.9,41.5,58,30.02,10.0,SSE,15.0,19.6,N/A,,Clear,160,2013-03-11 19:15:00
3:35 PM,55.9,41.9,59,30.01,10.0,South,11.5,19.6,N/A,,Scattered Clouds,170,2013-03-11 19:35:00
3:55 PM,55.8,42.3,60,29.99,10.0,SSE,10.4,-,N/A,,Scattered Clouds,160,2013-03-11 19:55:00
4:15 PM,55.9,42.8,61,29.98,10.0,SSE,8.1,-,N/A,,Scattered Clouds,150,2013-03-11 20:15:00
4:35 PM,56.5,44.1,63,29.96,10.0,South,10.4,-,N/A,,Scattered Clouds,180,2013-03-11 20:35:00
4:55 PM,57.2,45.5,65,29.96,10.0,South,12.7,-,N/A,,Mostly Cloudy,170,2013-03-11 20:55:00
5:15 PM,57.4,46.2,66,29.97,10.0,South,11.5,-,N/A,,Scattered Clouds,190,2013-03-11 21:15:00
5:35 PM,57.4,46.4,67,29.96,10.0,South,9.2,-,N/A,,Scattered Clouds,180,2013-03-11 21:35:00
5:55 PM,57.2,46.0,66,29.96,10.0,South,9.2,-,N/A,,Mostly Cloudy,180,2013-03-11 21:55:00
6:15 PM,57.2,46.4,67,29.96,10.0,South,8.1,-,N/A,,Mostly Cloudy,190,2013-03-11 22:15:00
6:35 PM,57.4,46.6,67,29.94,10.0,SSE,6.9,-,N/A,,Overcast,160,2013-03-11 22:35:00
6:55 PM,57.0,46.6,68,29.95,10.0,South,4.6,-,N/A,,Overcast,190,2013-03-11 22:55:00
7:15 PM,57.0,47.1,69,29.96,10.0,SSW,5.8,-,N/A,,Overcast,210,2013-03-11 23:15:00
7:35 PM,57.4,47.1,69,29.95,10.0,SSE,6.9,-,N/A,,Overcast,150,2013-03-11 23:35:00
7:55 PM,56.3,46.9,71,29.94,10.0,Calm,Calm,-,N/A,,Overcast,0,2013-03-11 23:55:00
8:15 PM,56.3,46.9,71,29.95,10.0,Calm,Calm,-,N/A,,Overcast,0,2013-03-12 00:15:00
8:35 PM,56.8,47.3,70,29.94,10.0,SSE,5.8,-,N/A,,Overcast,150,2013-03-12 00:35:00
8:55 PM,57.2,47.5,70,29.93,10.0,SW,3.5,-,N/A,,Overcast,230,2013-03-12 00:55:00
9:15 PM,56.5,47.5,72,29.93,10.0,Calm,Calm,-,N/A,Rain,Light Rain,0,2013-03-12 01:15:00
9:35 PM,58.1,46.8,66,29.93,10.0,South,4.6,-,N/A,,Light Drizzle,170,2013-03-12 01:35:00
9:55 PM,59.0,46.6,63,29.92,10.0,SSE,9.2,-,N/A,Rain,Light Rain,160,2013-03-12 01:55:00
10:15 PM,58.5,47.3,66,29.91,10.0,SSW,9.2,-,N/A,Rain,Light Rain,200,2013-03-12 02:15:00
10:35 PM,57.7,48.2,70,29.90,10.0,South,10.4,-,N/A,Rain,Light Rain,170,2013-03-12 02:35:00
10:55 PM,58.1,48.6,71,29.89,10.0,South,11.5,17.3,N/A,,Drizzle,170,2013-03-12 02:55:00
11:15 PM,58.3,48.9,71,29.87,10.0,South,12.7,21.9,N/A,,Light Drizzle,170,2013-03-12 03:15:00
11:35 PM,58.1,49.1,72,29.88,10.0,South,12.7,18.4,N/A,,Mostly Cloudy,190,2013-03-12 03:35:00
11:55 PM,57.9,49.6,74,29.88,10.0,South,15.0,21.9,N/A,Rain,Light Rain,170,2013-03-12 03:55:00